CYGFM07

Last updated on Sun Apr 12 2026 00:02:27 GMT+0000 (Coordinated Universal Time)

1 41890U 16078G 26101.27096053 .00020657 00000+0 27863-3 0 9994 2 41890 34.9460 313.8715 0008001 285.5801 74.4040 15.56789134518558
UTC large
Height (km)
Speed (km/s)
/
Latitude / Longitude
Inclination (degrees)
Orbital Period (minutes)
Azimuth
Elevation
Range (km)
Doppler Factor

Next 0 passes for location: London (51.5072 / 0.1276)

Sorry there are no passes over London.
CYGFM07